IT9IRS-1 Weather Reports


time (UTC)temp
C
wind
direction
speed
KPH
gust
KPH
rain 1hr
cm
rain 24hr
cm
rain mn
cm
humidity
%
barometer
mb
20260507175005 20 307 8.0 11.3 0.00 0.00 0.00 60 1004.2
20260507174714 20 303 8.0 11.3 0.00 0.00 0.00 60 1004.2
20260507174004 21 289 8.0 11.3 0.00 0.00 0.00 61 1004.2
20260507173504 21 293 9.7 12.9 0.00 0.00 0.00 59 1004.2
20260507173004 21 288 11.3 14.5 0.00 0.00 0.00 58 1004.2
20260507172716 21 281 11.3 14.5 0.00 0.00 0.00 57 1004.2
20260507172005 21 273 9.7 14.5 0.00 0.00 0.00 53 1004.2
20260507171717 21 271 9.7 14.5 0.00 0.00 0.00 53 1004.2
20260507171004 22 281 9.7 12.9 0.00 0.00 0.00 52 1004.2
20260507170504 22 289 9.7 12.9 0.00 0.00 0.00 52 1004.2
20260507170004 22 291 11.3 12.9 0.00 0.00 0.00 52 1004.2
20260507165504 22 298 11.3 12.9 0.00 0.00 0.00 52 1004.2
20260507165003 22 302 11.3 12.9 0.00 0.00 0.00 53 1004.2
20260507164505 22 306 11.3 14.5 0.00 0.00 0.00 52 1004.2
20260507164003 22 301 9.7 14.5 0.00 0.00 0.00 52 1004.2
20260507163503 22 298 9.7 12.9 0.00 0.00 0.00 52 1004.2
20260507163004 22 296 9.7 14.5 0.00 0.00 0.00 52 1004.2
20260507162504 22 287 12.9 17.7 0.00 0.00 0.00 52 1004.2
20260507162003 22 283 16.1 20.9 0.00 0.00 0.00 52 1004.2
20260507161503 22 281 16.1 20.9 0.00 0.00 0.00 52 1004.2
20260507161215 22 276 16.1 27.4 0.00 0.00 0.00 52 1004.2
20260507160503 22 271 16.1 27.4 0.00 0.00 0.00 52 1004.2
20260507160004 22 258 14.5 20.9 0.00 0.00 0.00 52 1004.2
20260507155503 22 251 14.5 19.3 0.00 0.00 0.00 53 1004.2
20260507155003 22 249 16.1 22.5 0.00 0.00 0.00 53 1004.2
20260507154503 23 240 16.1 22.5 0.00 0.00 0.00 53 1004.2
20260507154004 23 205 16.1 20.9 0.00 0.00 0.00 53 1004.2
20260507153716 23 183 16.1 20.9 0.00 0.00 0.00 54 1004.2
20260507153003 23 217 16.1 24.1 0.00 0.00 0.00 54 1004.2
20260507152503 23 218 16.1 22.5 0.00 0.00 0.00 54 1004.2
20260507152003 23 202 16.1 22.5 0.00 0.00 0.00 55 1004.2
20260507151504 23 182 16.1 20.9 0.00 0.00 0.00 56 1004.2
20260507151003 23 180 19.3 24.1 0.00 0.00 0.00 56 1003.2
20260507150503 23 180 16.1 24.1 0.00 0.00 0.00 55 1003.2
20260507150217 23 178 12.9 24.1 0.00 0.00 0.00 55 1003.2
20260507145503 23 173 8.0 12.9 0.00 0.00 0.00 55 1004.2
20260507145004 23 179 9.7 16.1 0.00 0.00 0.00 54 1004.2
20260507144503 23 180 11.3 16.1 0.00 0.00 0.00 54 1004.2
20260507144003 23 211 12.9 24.1 0.00 0.00 0.00 54 1004.2
20260507143503 23 238 14.5 24.1 0.00 0.00 0.00 54 1004.2
20260507143004 23 198 14.5 17.7 0.00 0.00 0.00 53 1004.2
20260507142717 23 180 14.5 19.3 0.00 0.00 0.00 55 1004.2
20260507142004 23 193 16.1 25.7 0.00 0.00 0.00 54 1004.2
20260507141504 23 193 17.7 25.7 0.00 0.00 0.00 55 1004.2
20260507141004 23 207 16.1 22.5 0.00 0.00 0.00 56 1004.2
20260507140504 23 205 14.5 17.7 0.00 0.00 0.00 56 1004.2
20260507140004 23 180 14.5 17.7 0.00 0.00 0.00 56 1004.2
20260507135504 23 180 14.5 20.9 0.00 0.00 0.00 56 1004.2
20260507135004 23 213 14.5 20.9 0.00 0.00 0.00 56 1004.2
20260507134504 23 258 12.9 17.7 0.00 0.00 0.00 54 1004.2
20260507134004 23 252 16.1 19.3 0.00 0.00 0.00 55 1004.2
20260507133504 23 212 19.3 37.0 0.00 0.00 0.00 56 1004.2
20260507133004 23 220 17.7 37.0 0.00 0.00 0.00 57 1004.2
20260507132713 23 238 16.1 37.0 0.00 0.00 0.00 55 1004.2
20260507132004 23 302 14.5 22.5 0.00 0.00 0.00 56 1004.2
20260507131504 23 286 14.5 22.5 0.00 0.00 0.00 57 1004.2
20260507131004 22 247 14.5 19.3 0.00 0.00 0.00 58 1004.2
20260507130506 23 237 14.5 20.9 0.00 0.00 0.00 60 1004.2
20260507130004 22 250 14.5 22.5 0.00 0.00 0.00 62 1004.2
20260507125506 22 255 12.9 22.5 0.00 0.00 0.00 62 1004.2
20260507125004 22 199 11.3 14.5 0.00 0.00 0.00 62 1004.2
20260507124506 22 174 9.7 16.1 0.00 0.00 0.00 62 1004.2
20260507124004 22 164 9.7 16.1 0.00 0.00 0.00 61 1004.2
20260507123504 22 157 11.3 16.1 0.00 0.00 0.00 61 1004.2
20260507123217 22 163 11.3 16.1 0.00 0.00 0.00 61 1004.2
20260507122503 22 172 9.7 12.9 0.00 0.00 0.00 61 1004.2
20260507122004 22 169 9.7 16.1 0.00 0.00 0.00 61 1004.2
20260507121504 22 165 9.7 16.1 0.00 0.00 0.00 60 1004.2
20260507121004 22 165 9.7 16.1 0.00 0.00 0.00 60 1004.2
20260507120503 22 167 12.9 16.1 0.00 0.00 0.00 60 1004.2
20260507120004 22 169 12.9 14.5 0.00 0.00 0.00 60 1004.2
20260507115504 22 170 11.3 14.5 0.00 0.00 0.00 60 1004.2
20260507115004 22 174 11.3 17.7 0.00 0.00 0.00 60 1004.2
20260507114503 22 175 14.5 17.7 0.00 0.00 0.00 60 1004.2
20260507114003 22 170 14.5 20.9 0.00 0.00 0.00 60 1004.2
20260507113504 22 166 16.1 20.9 0.00 0.00 0.00 59 1004.2
20260507113004 22 171 16.1 20.9 0.00 0.00 0.00 59 1004.2
20260507112505 22 172 14.5 20.9 0.00 0.00 0.00 59 1004.2
20260507112003 22 164 14.5 17.7 0.00 0.00 0.00 59 1004.2
20260507111504 22 168 16.1 22.5 0.00 0.00 0.00 58 1004.2
20260507111003 22 170 16.1 22.5 0.00 0.00 0.00 58 1004.2
20260507110503 23 160 14.5 22.5 0.00 0.00 0.00 58 1004.2
20260507110003 23 150 11.3 16.1 0.00 0.00 0.00 57 1004.2
20260507105503 23 144 11.3 17.7 0.00 0.00 0.00 57 1004.2
20260507105215 23 140 12.9 17.7 0.00 0.00 0.00 57 1004.2
20260507104504 23 135 12.9 17.7 0.00 0.00 0.00 56 1004.2
20260507104216 23 135 11.3 14.5 0.00 0.00 0.00 56 1004.2
20260507103504 23 137 11.3 19.3 0.00 0.00 0.00 56 1004.2
20260507103004 23 140 9.7 14.5 0.00 0.00 0.00 55 1004.2
20260507102504 23 154 11.3 17.7 0.00 0.00 0.00 55 1005.3
20260507102006 23 157 9.7 17.7 0.00 0.00 0.00 54 1005.3
20260507101504 24 128 8.0 11.3 0.00 0.00 0.00 55 1005.3
20260507101214 24 130 9.7 16.1 0.00 0.00 0.00 54 1005.3
20260507100717 23 109 12.9 17.7 0.00 0.00 0.00 55 1005.3
20260507100004 23 106 14.5 17.7 0.00 0.00 0.00 55 1005.3
20260507095504 23 111 14.5 19.3 0.00 0.00 0.00 56 1004.2
20260507095004 23 109 16.1 19.3 0.00 0.00 0.00 55 1004.2
20260507094504 23 99 14.5 19.3 0.00 0.00 0.00 54 1004.2
20260507094004 23 97 14.5 27.4 0.00 0.00 0.00 54 1004.2
20260507093504 23 101 19.3 27.4 0.00 0.00 0.00 53 1004.2
20260507093218 23 99 19.3 30.6 0.00 0.00 0.00 54 1004.2
20260507092504 22 96 22.5 30.6 0.00 0.00 0.00 53 1004.2
20260507092005 22 96 20.9 27.4 0.00 0.00 0.00 53 1004.2
20260507091504 22 101 19.3 25.7 0.00 0.00 0.00 54 1004.2
20260507091004 22 99 19.3 25.7 0.00 0.00 0.00 55 1004.2
20260507090506 22 93 20.9 29.0 0.00 0.00 0.00 54 1004.2
20260507090005 22 94 22.5 29.0 0.00 0.00 0.00 55 1004.2
20260507085504 22 99 22.5 29.0 0.00 0.00 0.00 53 1004.2
20260507085004 22 103 20.9 32.2 0.00 0.00 0.00 53 1004.2
20260507084504 22 101 19.3 32.2 0.00 0.00 0.00 51 1004.2
20260507084004 22 96 19.3 32.2 0.00 0.00 0.00 52 1004.2
20260507083503 22 90 17.7 22.5 0.00 0.00 0.00 52 1004.2
20260507083004 22 102 16.1 22.5 0.00 0.00 0.00 52 1004.2
20260507082506 22 104 17.7 24.1 0.00 0.00 0.00 53 1004.2
20260507082214 22 96 16.1 24.1 0.00 0.00 0.00 53 1004.2
20260507081503 22 99 16.1 24.1 0.00 0.00 0.00 52 1004.2
20260507081004 22 101 16.1 33.8 0.00 0.00 0.00 52 1004.2
20260507080504 22 97 19.3 33.8 0.00 0.00 0.00 51 1004.2
20260507080004 22 85 20.9 29.0 0.00 0.00 0.00 51 1004.2
20260507075503 22 82 20.9 29.0 0.00 0.00 0.00 52 1004.2
20260507075003 22 82 22.5 29.0 0.00 0.00 0.00 50 1004.2
20260507074503 22 85 22.5 24.1 0.00 0.00 0.00 50 1004.2
20260507074003 22 83 22.5 29.0 0.00 0.00 0.00 48 1004.2
20260507073716 22 83 20.9 29.0 0.00 0.00 0.00 50 1004.2
20260507073003 22 88 20.9 27.4 0.00 0.00 0.00 50 1004.2
20260507072503 22 87 19.3 27.4 0.00 0.00 0.00 50 1004.2
20260507072003 22 84 17.7 22.5 0.00 0.00 0.00 49 1004.2
20260507071718 22 85 17.7 25.7 0.00 0.00 0.00 50 1004.2
20260507071003 22 90 17.7 25.7 0.00 0.00 0.00 49 1005.3
20260507070503 22 93 17.7 20.9 0.00 0.00 0.00 50 1005.3
20260507070006 22 99 17.7 24.1 0.00 0.00 0.00 50 1005.3
20260507065503 22 93 16.1 24.1 0.00 0.00 0.00 48 1004.2
20260507065003 22 79 12.9 19.3 0.00 0.00 0.00 47 1004.2
20260507064503 22 77 14.5 19.3 0.00 0.00 0.00 49 1004.2
20260507064003 22 78 14.5 19.3 0.00 0.00 0.00 48 1004.2
20260507063504 22 74 11.3 16.1 0.00 0.00 0.00 49 1004.2
20260507063004 21 72 11.3 17.7 0.00 0.00 0.00 48 1004.2
20260507062504 21 77 11.3 17.7 0.00 0.00 0.00 47 1004.2
20260507062004 21 73 8.0 11.3 0.00 0.00 0.00 44 1004.2
20260507061504 21 49 9.7 19.3 0.00 0.00 0.00 43 1004.2
20260507061004 21 46 9.7 19.3 0.00 0.00 0.00 42 1004.2
20260507060504 20 50 8.0 14.5 0.00 0.00 0.00 45 1004.2
20260507060217 20 49 9.7 16.1 0.00 0.00 0.00 45 1004.2
20260507055504 20 44 9.7 16.1 0.00 0.00 0.00 46 1003.2
20260507055004 20 38 8.0 11.3 0.00 0.00 0.00 47 1003.2
20260507054504 20 41 8.0 11.3 0.00 0.00 0.00 47 1003.2
20260507054004 19 58 9.7 12.9 0.00 0.00 0.00 47 1003.2
20260507053717 19 55 9.7 12.9 0.00 0.00 0.00 47 1003.2
20260507053004 18 44 9.7 12.9 0.00 0.00 0.00 48 1003.2
20260507052505 18 44 9.7 12.9 0.00 0.00 0.00 49 1003.2
20260507052216 18 44 8.0 12.9 0.00 0.00 0.00 49 1003.2
20260507051504 18 36 9.7 11.3 0.00 0.00 0.00 49 1003.2
20260507051004 18 39 8.0 11.3 0.00 0.00 0.00 49 1003.2
20260507050715 18 45 9.7 14.5 0.00 0.00 0.00 48 1003.2
20260507050004 18 45 11.3 14.5 0.00 0.00 0.00 47 1003.2
20260507045716 18 46 12.9 14.5 0.00 0.00 0.00 47 1003.2
20260507045004 18 41 12.9 19.3 0.00 0.00 0.00 46 1002.2
20260507044504 18 41 14.5 19.3 0.00 0.00 0.00 46 1002.2
20260507044004 18 45 16.1 20.9 0.00 0.00 0.00 46 1002.2
20260507043504 18 45 16.1 22.5 0.00 0.00 0.00 46 1002.2
20260507043004 18 44 16.1 22.5 0.00 0.00 0.00 46 1002.2
20260507042714 18 43 14.5 22.5 0.00 0.00 0.00 45 1002.2
20260507042003 18 45 16.1 22.5 0.00 0.00 0.00 45 1002.2
20260507041715 18 45 16.1 20.9 0.00 0.00 0.00 45 1002.2
20260507041004 18 52 14.5 20.9 0.00 0.00 0.00 44 1002.2
20260507040504 18 49 14.5 20.9 0.00 0.00 0.00 44 1002.2
20260507040003 18 41 12.9 17.7 0.00 0.00 0.00 44 1002.2
20260507035504 18 41 11.3 17.7 0.00 0.00 0.00 44 1002.2
20260507035215 18 42 11.3 17.7 0.00 0.00 0.00 44 1002.2
20260507034506 18 43 14.5 20.9 0.00 0.00 0.00 43 1002.2
20260507034004 18 45 14.5 20.9 0.00 0.00 0.00 42 1003.2
20260507033503 18 46 14.5 20.9 0.00 0.00 0.00 42 1003.2
20260507033005 18 46 14.5 20.9 0.00 0.00 0.00 41 1003.2
20260507032504 19 47 16.1 27.4 0.00 0.00 0.00 40 1002.2
20260507032004 19 50 16.1 27.4 0.00 0.00 0.00 39 1002.2
20260507031505 19 53 16.1 20.9 0.00 0.00 0.00 39 1002.2
20260507031003 19 60 17.7 27.4 0.00 0.00 0.00 38 1003.2
20260507030503 20 69 19.3 27.4 0.00 0.00 0.00 37 1003.2
20260507030214 20 75 20.9 24.1 0.00 0.00 0.00 36 1003.2
20260507025503 19 72 22.5 32.2 0.00 0.00 0.00 38 1003.2
20260507025004 19 69 19.3 29.0 0.00 0.00 0.00 40 1003.2
20260507024506 18 62 16.1 19.3 0.00 0.00 0.00 45 1003.2
20260507024004 18 56 14.5 19.3 0.00 0.00 0.00 47 1004.2
20260507023504 18 49 12.9 16.1 0.00 0.00 0.00 50 1004.2
20260507023004 18 48 12.9 16.1 0.00 0.00 0.00 52 1004.2
20260507022504 18 56 12.9 16.1 0.00 0.00 0.00 52 1004.2
20260507022218 17 61 14.5 20.9 0.00 0.00 0.00 55 1004.2
20260507021504 17 58 12.9 20.9 0.00 0.00 0.00 56 1004.2
20260507021004 17 47 12.9 16.1 0.00 0.00 0.00 58 1004.2
20260507020504 17 46 11.3 14.5 0.00 0.00 0.00 59 1004.2
20260507020004 17 50 11.3 14.5 0.00 0.00 0.00 60 1004.2
20260507015504 17 48 11.3 14.5 0.00 0.00 0.00 61 1004.2
20260507015004 17 50 11.3 14.5 0.00 0.00 0.00 62 1004.2
20260507014504 17 56 11.3 16.1 0.00 0.00 0.00 63 1004.2
20260507014004 17 52 12.9 16.1 0.00 0.00 0.00 64 1005.3
20260507013505 17 55 12.9 17.7 0.00 0.00 0.00 65 1005.3
20260507013004 17 54 12.9 17.7 0.00 0.00 0.00 65 1005.3
20260507012504 17 47 12.9 17.7 0.00 0.00 0.00 66 1005.3
20260507012004 17 45 12.9 16.1 0.00 0.00 0.00 67 1005.3
20260507010505 17 49 11.3 20.9 0.00 0.00 0.00 73 1005.3
20260507010215 17 53 12.9 20.9 0.00 0.00 0.00 74 1005.3
20260507005504 17 51 11.3 14.5 0.00 0.00 0.00 77 1005.3
20260507005003 17 42 9.7 11.3 0.00 0.00 0.00 79 1005.3
20260507004504 16 38 8.0 9.7 0.00 0.00 0.00 81 1005.3
20260507004003 16 32 8.0 8.0 0.00 0.00 0.00 82 1006.3
20260507003503 16 16 6.4 8.0 0.00 0.00 0.00 82 1006.3
20260507003004 16 4 6.4 8.0 0.00 0.00 0.00 83 1006.3
20260507002503 16 351 6.4 8.0 0.00 0.00 0.00 83 1006.3
20260507002004 16 328 4.8 8.0 0.00 0.00 0.00 83 1006.3
20260507001503 16 315 6.4 8.0 0.00 0.00 0.00 83 1006.3
20260507001004 16 317 6.4 8.0 0.00 0.00 0.00 83 1006.3
20260507000503 16 322 6.4 8.0 0.00 0.00 0.00 84 1006.3
20260507000003 16 334 4.8 8.0 0.00 0.00 0.00 84 1006.3
20260506235505 16 347 6.4 6.4 0.00 0.00 0.00 84 1006.3
20260506235004 16 342 6.4 8.0 0.00 0.00 0.00 84 1006.3
20260506234503 16 322 6.4 8.0 0.00 0.00 0.00 84 1006.3
20260506234005 16 323 6.4 8.0 0.00 0.00 0.00 84 1006.3
20260506233503 16 340 6.4 8.0 0.00 0.00 0.00 85 1006.3
20260506233003 16 5 9.7 12.9 0.00 0.00 0.00 85 1006.3
20260506232717 16 17 9.7 12.9 0.00 0.00 0.00 85 1006.3
20260506232003 16 11 9.7 14.5 0.00 0.00 0.00 86 1006.3
20260506231503 16 6 11.3 14.5 0.00 0.00 0.00 86 1006.3
20260506231003 16 3 12.9 19.3 0.00 0.00 0.00 87 1006.3
20260506230504 16 3 12.9 19.3 0.00 0.00 0.00 88 1006.3
20260506230004 16 2 12.9 14.5 0.00 0.00 0.00 88 1006.3
20260506225715 16 6 11.3 14.5 0.00 0.00 0.00 88 1006.3
20260506225004 16 17 11.3 16.1 0.00 0.00 0.00 87 1007.3
20260506224504 16 30 9.7 16.1 0.00 0.00 0.00 86 1007.3
20260506224214 16 22 8.0 16.1 0.00 0.00 0.00 85 1007.3
20260506223504 15 11 8.0 12.9 0.00 0.00 0.00 84 1007.3
20260506223004 15 5 6.4 8.0 0.00 0.00 0.00 83 1007.3
20260506222504 15 357 4.8 8.0 0.00 0.00 0.00 82 1007.3
20260506222215 15 2 4.8 8.0 0.00 0.00 0.00 82 1007.3
20260506221504 16 7 6.4 8.0 0.00 0.00 0.00 82 1007.3
20260506221004 16 347 4.8 8.0 0.00 0.00 0.00 81 1007.3
20260506220504 16 345 6.4 6.4 0.00 0.00 0.00 81 1007.3
20260506220006 17 13 6.4 6.4 0.00 0.00 0.00 81 1007.3
20260506215504 17 43 6.4 8.0 0.00 0.00 0.00 81 1007.3
20260506215213 17 47 6.4 8.0 0.00 0.00 0.00 81 1007.3
20260506214505 18 72 8.0 8.0 0.00 0.00 0.00 82 1007.3
20260506214004 18 86 6.4 8.0 0.00 0.00 0.00 82 1007.3
20260506213504 18 70 8.0 12.9 0.00 0.00 0.00 82 1007.3
20260506213215 18 68 8.0 12.9 0.00 0.00 0.00 82 1007.3
20260506212504 18 81 6.4 12.9 0.00 0.00 0.00 82 1007.3
20260506212004 18 66 8.0 12.9 0.00 0.00 0.00 82 1007.3
20260506211504 18 61 8.0 12.9 0.00 0.00 0.00 81 1007.3
20260506211004 18 94 4.8 8.0 0.00 0.00 0.00 81 1007.3
20260506210504 18 102 3.2 8.0 0.00 0.00 0.00 81 1007.3
20260506210004 18 36 3.2 8.0 0.00 0.00 0.00 81 1007.3
20260506205503 18 45 6.4 11.3 0.00 0.00 0.00 81 1007.3
20260506205004 18 64 9.7 11.3 0.00 0.00 0.00 80 1007.3
20260506204504 18 76 8.0 11.3 0.00 0.00 0.00 80 1007.3
20260506204004 18 66 8.0 14.5 0.00 0.00 0.00 80 1008.3
20260506203504 18 68 8.0 14.5 0.00 0.00 0.00 80 1008.3
20260506203004 18 71 8.0 14.5 0.00 0.00 0.00 80 1008.3
20260506202503 18 72 8.0 12.9 0.00 0.00 0.00 80 1008.3
20260506202003 18 76 8.0 12.9 0.00 0.00 0.00 80 1008.3
20260506201505 18 74 8.0 9.7 0.00 0.00 0.00 80 1008.3
20260506201003 18 85 8.0 11.3 0.00 0.00 0.00 80 1007.3
20260506200504 19 103 8.0 11.3 0.00 0.00 0.00 80 1007.3
20260506200004 18 96 8.0 12.9 0.00 0.00 0.00 80 1007.3
20260506195503 18 90 8.0 12.9 0.00 0.00 0.00 80 1007.3
20260506195003 19 96 9.7 12.9 0.00 0.00 0.00 80 1007.3
20260506194503 19 99 11.3 16.1 0.00 0.00 0.00 80 1007.3
20260506194003 19 99 12.9 20.9 0.00 0.00 0.00 80 1006.3
20260506193503 18 94 11.3 20.9 0.00 0.00 0.00 80 1006.3
20260506193004 18 90 12.9 19.3 0.00 0.00 0.00 81 1006.3
20260506192503 18 91 12.9 19.3 0.00 0.00 0.00 81 1006.3
20260506192003 18 92 12.9 19.3 0.00 0.00 0.00 82 1006.3
20260506191503 18 107 12.9 17.7 0.00 0.00 0.00 82 1006.3
20260506191005 18 113 11.3 17.7 0.00 0.00 0.00 83 1006.3
20260506190503 18 105 11.3 17.7 0.00 0.00 0.00 83 1006.3
20260506190214 18 103 11.3 17.7 0.00 0.00 0.00 83 1006.3
20260506185503 18 106 11.3 17.7 0.00 0.00 0.00 83 1006.3
20260506185003 18 101 12.9 16.1 0.00 0.00 0.00 83 1006.3
20260506184505 18 91 12.9 20.9 0.00 0.00 0.00 83 1006.3
20260506184004 18 86 12.9 20.9 0.00 0.00 0.00 82 1006.3
20260506183504 18 89 12.9 20.9 0.00 0.00 0.00 82 1006.3
20260506183005 18 89 12.9 17.7 0.00 0.00 0.00 82 1006.3
20260506182504 18 90 12.9 17.7 0.00 0.00 0.00 81 1006.3
20260506182004 18 83 16.1 24.1 0.00 0.00 0.00 81 1006.3
20260506181504 18 85 19.3 24.1 0.00 0.00 0.00 81 1006.3
20260506181004 18 92 19.3 22.5 0.00 0.00 0.00 81 1006.3
20260506180504 18 92 19.3 27.4 0.00 0.00 0.00 81 1006.3
20260506180215 18 90 19.3 27.4 0.00 0.00 0.00 81 1006.3
20260506175504 18 92 16.1 22.5 0.00 0.00 0.00 82 1006.3